Location: ??
(35.5090°N, 139.6783°E)
Time: 19:17:13
(UTC+00:00)

Cosmos 1975 Rocket - Pass Details

Date: 08 November 2025
Orbit: 598 x 626 km, 82.5° (Epoch: 08 December)

Event Time Altitude Azimuth Distance (km) Brightness Sun altitude
Rises 08:46:58 0° 5° (N) 2,854 6.3 -14.0°
Reaches altitude 10° 08:49:24 10° 16° (NNE) 1,951 5.4 -14.4°
Maximum altitude 08:53:12 30° 78° (ENE) 1,096 3.7 -15.2°
Drops below altitude 10° 08:57:00 10° 140° (SE) 1,952 5.3 -16.0°
Sets 08:59:26 0° 151° (SSE) 2,857 6.3 -16.5°
